N5SRF Weather Reports


Display with metric or nautical units.
time (UTC)temp
F
wind
direction
speed
MPH
gust
MPH
rain 1hr
in
rain 24hr
in
rain mn
in
humidity
%
barometer
mb
20260902174102 81 160 1.0 1.0 0.00 1.40 1.40 99 1018.2
20260902173601 80 164 3.0 3.0 0.00 1.40 1.40 99 1018.2
20260902173057 80 174 1.0 1.0 0.00 1.40 1.40 99 1018.2
20260902172550 80 152 3.0 3.0 0.00 1.40 1.40 99 1018.1
20260902172045 79 155 1.0 1.0 0.00 1.40 1.40 99 1018.2
20260902171536 79 171 2.0 3.0 0.00 1.40 1.40 99 1018.4
20260902171031 79 207 3.0 3.0 0.00 1.40 1.40 99 1018.5
20260902170526 78 66 0.0 1.0 0.00 1.40 1.40 99 1018.6
20260902170022 78 172 2.0 2.0 0.00 1.40 1.40 99 1018.6
20260902165521 77 122 4.0 5.0 0.00 1.40 1.40 99 1018.7
20260902165016 77 150 3.0 3.0 0.00 1.40 1.40 99 1019.0
20260902164511 77 153 4.0 6.0 0.00 1.40 1.40 99 1019.0
20260902164010 77 63 2.0 2.0 0.00 1.40 1.40 99 1018.9
20260902163506 76 162 2.0 3.0 0.00 1.40 1.40 99 1019.0
20260902163004 76 169 1.0 2.0 0.00 1.40 1.40 99 1019.4
20260902162458 75 153 2.0 2.0 0.00 1.40 1.40 99 1018.9
20260902161953 75 136 2.0 3.0 0.00 1.40 1.40 99 1019.1
20260902161448 77 159 3.0 6.0 0.00 1.40 1.40 99 1018.9
20260902160944 77 133 5.0 9.0 0.00 1.40 1.40 99 1019.2
20260902160439 77 220 7.0 10.0 0.00 1.40 1.40 99 1018.9
20260902155936 77 209 4.0 6.0 0.00 1.40 1.40 99 1018.7
20260902155433 77 229 5.0 6.0 0.00 1.40 1.40 99 1018.8
20260902154926 77 170 2.0 2.0 0.00 1.40 1.40 99 1018.8
20260902154422 77 184 3.0 3.0 0.00 1.40 1.40 99 1018.7
20260902153922 77 204 3.0 3.0 0.00 1.40 1.40 99 1018.6
20260902153420 77 193 0.0 1.0 0.00 1.40 1.40 99 1018.4
20260902152916 77 179 1.0 2.0 0.00 1.40 1.40 99 1018.5
20260902152412 77 136 2.0 3.0 0.00 1.40 1.40 99 1018.6
20260902151908 76 166 1.0 1.0 0.00 1.40 1.40 99 1018.5
20260902151403 76 187 2.0 5.0 0.00 1.40 1.40 99 1018.6
20260902150902 76 182 1.0 2.0 0.00 1.40 1.40 99 1018.2
20260902150359 76 175 1.0 2.0 0.00 1.40 1.40 99 1018.4
20260902145858 75 170 2.0 3.0 0.07 1.40 1.40 99 1018.5
20260902145354 75 177 0.0 1.0 0.07 1.40 1.40 99 1018.2
20260902144849 75 180 3.0 3.0 0.00 1.39 1.39 99 1018.4
20260902144345 75 185 0.0 0.0 0.00 1.39 1.39 99 1018.3
20260902143839 75 174 2.0 3.0 0.00 1.39 1.39 99 1018.4
20260902143333 75 182 1.0 2.0 0.00 1.39 1.39 99 1018.2
20260902142830 75 187 3.0 5.0 0.00 1.39 1.39 99 1018.4
20260902142325 75 83 3.0 3.0 0.00 1.39 1.39 99 1018.4
20260902141820 75 196 3.0 5.0 0.05 1.39 1.39 99 1018.3
20260902141316 75 344 1.0 2.0 0.05 1.39 1.39 99 1018.1
20260902140815 75 155 3.0 3.0 0.00 1.38 1.38 99 1018.1
20260902140310 75 159 3.0 6.0 0.07 1.38 1.38 99 1018.1
20260902135809 75 154 2.0 3.0 0.14 1.38 1.38 99 1018.0
20260902135307 75 208 2.0 2.0 0.12 1.37 1.37 99 1018.0
20260902134805 75 187 2.0 2.0 0.12 1.36 1.36 99 1018.0
20260902134301 74 162 0.0 1.0 0.07 1.35 1.35 99 1017.9
20260902133756 74 179 2.0 2.0 0.05 1.34 1.34 99 1018.0
20260902133255 75 173 1.0 1.0 0.05 1.34 1.34 99 1017.8
20260902132750 75 176 0.0 1.0 0.07 1.33 1.33 99 1018.0
20260902132246 75 181 1.0 2.0 0.24 1.33 1.33 99 1017.9
20260902131741 75 185 3.0 3.0 0.38 1.31 1.31 99 1017.7
20260902131238 75 178 1.0 1.0 0.35 1.28 1.28 99 1017.5
20260902130737 75 165 1.0 1.0 0.31 1.26 1.26 99 1017.6
20260902130233 75 175 0.0 1.0 0.19 1.22 1.22 99 1017.5
20260902125728 75 157 1.0 2.0 0.12 1.21 1.21 99 1017.3
20260902125224 75 173 3.0 3.0 0.00 1.19 1.19 99 1017.4
20260902124721 75 185 2.0 2.0 0.00 1.19 1.19 99 1017.1
20260902124216 75 206 1.0 2.0 0.00 1.19 1.19 99 1017.2
20260902123711 75 176 1.0 1.0 0.00 1.19 1.19 99 1017.0
20260902123207 75 145 1.0 1.0 0.00 1.19 1.19 99 1017.1
20260902122705 75 188 1.0 1.0 0.00 1.19 1.19 99 1016.8
20260902122202 75 148 2.0 2.0 0.00 1.19 1.19 99 1016.7
20260902121656 75 205 1.0 1.0 0.00 1.19 1.19 99 1016.6
20260902121150 75 178 1.0 2.0 0.00 1.19 1.19 99 1016.5
20260902120647 75 146 3.0 3.0 0.00 1.19 1.19 99 1016.4
20260902120143 75 252 1.0 1.0 0.00 1.19 1.19 99 1016.3
20260902115637 75 176 1.0 2.0 0.05 1.19 1.19 99 1016.4
20260902115133 75 215 1.0 1.0 0.05 1.19 1.19 99 1016.1
20260902114629 75 152 1.0 1.0 0.05 1.19 1.19 99 1016.2
20260902114129 75 180 0.0 1.0 0.00 1.18 1.18 99 1016.3
20260902113624 75 161 2.0 2.0 0.07 1.18 1.18 99 1016.1
20260902113119 75 189 3.0 5.0 0.12 1.18 1.18 99 1015.8
20260902112609 75 87 2.0 2.0 0.05 1.17 1.17 99 1016.1
20260902112106 75 118 1.0 1.0 0.07 1.16 1.16 99 1015.8
20260902111602 75 194 2.0 3.0 0.07 1.16 1.16 99 1015.6
20260902111057 75 179 2.0 3.0 0.05 1.15 1.15 99 1015.8
20260902110553 75 149 1.0 2.0 0.19 1.15 1.15 99 1015.8
20260902110048 75 199 2.0 2.0 0.38 1.14 1.14 99 1015.5
20260902105543 75 166 4.0 6.0 0.47 1.11 1.11 99 1015.3
20260902105043 75 176 5.0 7.0 0.71 1.08 1.08 99 1015.5
20260902104539 75 309 4.0 5.0 1.09 1.03 1.03 99 1015.4
20260902104038 75 162 3.0 3.0 1.25 0.98 0.98 99 1015.2
20260902103534 75 166 3.0 5.0 1.18 0.84 0.84 99 1015.0
20260902103029 75 67 1.0 2.0 1.13 0.76 0.76 99 1015.2
20260902102526 75 213 3.0 3.0 0.78 0.66 0.66 99 1015.0
20260902102022 75 179 2.0 3.0 0.35 0.57 0.57 99 1015.0
20260902101517 75 118 4.0 6.0 0.19 0.53 0.53 99 1015.2
20260902101016 74 216 2.0 5.0 0.14 0.51 0.51 99 1014.8
20260902100511 74 112 3.0 5.0 0.07 0.50 0.50 99 1014.5
20260902100006 74 178 4.0 5.0 0.00 0.49 0.49 99 1014.3
20260902095506 74 123 3.0 5.0 0.05 0.49 0.49 99 1014.1
20260902095005 74 163 6.0 8.0 0.05 0.49 0.49 99 1014.0
20260902094501 74 21 5.0 7.0 0.00 0.48 0.48 99 1014.4
20260902094001 74 241 7.0 9.0 0.07 0.48 0.48 99 1014.2
20260902093456 74 148 2.0 3.0 0.12 0.48 0.48 99 1014.0
20260902092955 74 193 5.0 6.0 0.17 0.47 0.47 99 1014.2
20260902092451 74 46 2.0 2.0 0.24 0.46 0.46 99 1014.1
20260902091951 74 152 3.0 5.0 0.24 0.45 0.45 99 1013.9
20260902091446 74 295 6.0 7.0 0.17 0.43 0.43 99 1013.9
20260902090943 74 209 7.0 13.0 0.17 0.41 0.41 99 1013.9
20260902090438 75 310 6.0 8.0 0.19 0.40 0.40 99 1013.8
20260902085936 75 230 3.0 5.0 0.07 0.38 0.38 99 1013.6
20260902085432 75 150 5.0 8.0 0.07 0.37 0.37 99 1013.7
20260902084927 75 209 5.0 8.0 0.12 0.37 0.37 99 1013.9
20260902084423 75 162 5.0 6.0 0.17 0.36 0.36 99 1013.7
20260902083918 75 178 4.0 7.0 0.19 0.35 0.35 99 1013.6
20260902083413 75 105 3.0 3.0 0.12 0.33 0.33 99 1013.6
20260902082908 75 79 3.0 5.0 0.17 0.32 0.32 99 1013.7
20260902082403 75 23 4.0 6.0 0.19 0.31 0.31 99 1013.6
20260902081900 75 262 4.0 7.0 0.19 0.29 0.29 99 1013.6
20260902081356 75 6 3.0 7.0 0.31 0.28 0.28 99 1013.6
20260902080856 75 150 3.0 5.0 0.54 0.26 0.26 99 1013.3
20260902080352 75 323 4.0 7.0 0.66 0.24 0.24 99 1013.3
20260902075851 76 214 5.0 8.0 0.42 0.17 0.17 99 1013.5
20260902075349 76 143 3.0 3.0 0.24 0.13 0.13 99 1013.5
20260902074849 76 120 1.0 2.0 0.12 0.10 0.10 99 1013.3
20260902074344 76 184 4.0 6.0 0.12 0.09 0.09 99 1013.3
20260902073839 76 232 7.0 9.0 0.12 0.08 0.08 99 1013.3
20260902073336 76 200 2.0 3.0 0.17 0.08 0.08 99 1013.4
20260902072831 77 56 3.0 5.0 0.12 0.06 0.06 99 1013.5
20260902072326 77 244 3.0 3.0 0.07 0.05 0.05 98 1013.1
20260902071823 77 114 2.0 3.0 0.05 0.04 0.04 98 1013.3
20260902071318 77 154 2.0 3.0 0.05 0.04 0.04 98 1013.3
20260902070814 77 332 3.0 3.0 0.07 0.03 0.03 97 1013.3
20260902070314 77 7 4.0 6.0 0.12 0.03 0.03 97 1013.2
20260902065813 77 350 2.0 3.0 0.05 0.02 0.02 96 1013.0
20260902065308 77 258 6.0 8.0 0.00 0.01 0.01 97 1013.3
20260902064803 77 323 6.0 8.0 0.00 0.01 0.01 97 1013.2
20260902064259 77 331 5.0 7.0 0.00 0.01 0.01 97 1013.1
20260902063755 77 281 6.0 7.0 0.00 0.01 0.01 97 1013.3
20260902063249 78 324 9.0 15.0 0.00 0.01 0.01 97 1013.5
20260902062749 78 347 10.0 14.0 0.07 0.01 0.01 97 1013.5
20260902062243 78 344 7.0 9.0 0.07 0.01 0.01 96 1013.9
20260902061742 78 324 9.0 10.0 0.00 0.00 0.00 96 1013.7
20260902061238 78 335 8.0 10.0 0.00 0.00 0.00 96 1013.8
20260902060735 78 286 7.0 9.0 0.00 0.00 0.00 96 1013.8
20260902060231 78 35 4.0 5.0 0.00 0.00 0.00 96 1014.0
20260902055726 78 335 11.0 16.0 0.00 0.46 0.46 97 1013.9
20260902055222 78 337 12.0 17.0 0.00 0.46 0.46 97 1014.1
20260902054717 78 333 9.0 13.0 0.00 0.46 0.46 97 1014.5
20260902054213 78 327 9.0 10.0 0.00 0.46 0.46 97 1014.3
20260902053708 78 346 6.0 8.0 0.00 0.46 0.46 97 1014.1
20260902053208 78 323 7.0 8.0 0.00 0.46 0.46 97 1014.3
20260902052707 78 56 7.0 8.0 0.00 0.46 0.46 97 1014.5
20260902052202 78 333 5.0 7.0 0.00 0.46 0.46 98 1014.7
20260902051701 78 307 8.0 9.0 0.00 0.46 0.46 98 1014.6
20260902051156 78 283 5.0 7.0 0.00 0.46 0.46 98 1014.7
20260902050651 78 303 6.0 7.0 0.00 0.46 0.46 98 1014.9
20260902050146 78 334 6.0 7.0 0.00 0.46 0.46 98 1014.8
20260902045641 78 326 5.0 6.0 0.00 0.46 0.46 98 1015.2
20260902045138 78 299 4.0 5.0 0.00 0.46 0.46 98 1015.1
20260902044637 78 315 5.0 9.0 0.07 0.46 0.46 98 1015.1
20260902044134 78 4 7.0 9.0 0.12 0.46 0.46 97 1015.2
20260902043628 78 333 5.0 7.0 0.12 0.45 0.45 97 1015.0
20260902043124 78 298 8.0 9.0 0.12 0.45 0.45 96 1015.3
20260902042623 78 4 7.0 8.0 0.00 0.43 0.43 96 1015.3
20260902042119 78 181 3.0 3.0 0.00 0.43 0.43 95 1015.4
20260902041618 78 341 4.0 5.0 0.00 0.43 0.43 95 1015.4
20260902041113 78 141 1.0 2.0 0.00 0.43 0.43 95 1015.5
20260902040607 78 322 7.0 8.0 0.00 0.43 0.43 95 1015.4
20260902035600 78 325 5.0 6.0 0.00 0.43 0.43 95 1015.8
20260902035056 78 316 7.0 8.0 0.00 0.43 0.43 95 1015.9
20260902034555 78 9 4.0 5.0 0.05 0.43 0.43 95 1015.9
20260902034055 78 357 4.0 5.0 0.05 0.43 0.43 95 1015.9
20260902033554 78 331 5.0 6.0 0.00 0.42 0.42 96 1016.1
20260902033049 77 282 6.0 7.0 0.00 0.42 0.42 96 1016.3
20260902032547 77 337 4.0 5.0 0.00 0.42 0.42 96 1016.4
20260902032043 77 355 4.0 5.0 0.00 0.42 0.42 96 1016.1
20260902031537 77 94 3.0 5.0 0.00 0.42 0.42 96 1016.3
20260902031034 77 327 3.0 5.0 0.00 0.42 0.42 96 1016.6
20260902030534 77 3 3.0 3.0 0.00 0.42 0.42 95 1016.8
20260902030034 77 327 5.0 7.0 0.07 0.42 0.42 95 1016.5
20260902025528 77 276 3.0 3.0 0.07 0.42 0.42 94 1016.7
20260902025024 78 305 3.0 3.0 0.00 0.41 0.41 93 1016.6
20260902024514 78 19 1.0 2.0 0.05 0.41 0.41 93 1016.7
20260902024013 79 33 4.0 5.0 0.05 0.41 0.41 91 1016.5
20260902023509 79 140 2.0 2.0 0.00 0.40 0.40 90 1016.6
20260902023004 80 229 3.0 3.0 0.00 0.40 0.40 88 1016.3
20260902022458 80 99 1.0 2.0 0.00 0.40 0.40 88 1016.6
20260902021954 80 29 7.0 9.0 0.00 0.40 0.40 87 1016.5
20260902021449 80 291 5.0 6.0 0.00 0.40 0.40 88 1016.2
20260902020944 80 355 4.0 5.0 0.00 0.40 0.40 88 1016.3
20260902020440 80 36 2.0 3.0 0.00 0.40 0.40 87 1016.7
20260902015936 80 5 1.0 2.0 0.00 0.40 0.40 87 1016.4
20260902015431 80 121 2.0 2.0 0.00 0.40 0.40 88 1016.6
20260902014926 80 146 3.0 7.0 0.00 0.40 0.40 89 1016.8
20260902014423 80 160 2.0 2.0 0.00 0.40 0.40 89 1016.5
20260902013922 80 114 1.0 1.0 0.00 0.40 0.40 89 1016.5
20260902013418 79 60 4.0 5.0 0.00 0.40 0.40 90 1016.4
20260902012913 79 103 2.0 2.0 0.00 0.40 0.40 91 1016.5
20260902012409 79 267 1.0 1.0 0.00 0.40 0.40 92 1016.5
20260902011904 79 166 0.0 1.0 0.00 0.40 0.40 92 1016.5
20260902011359 79 115 2.0 3.0 0.00 0.40 0.40 93 1016.3
20260902010853 78 70 1.0 1.0 0.00 0.40 0.40 94 1016.3
20260902010347 78 166 0.0 0.0 0.00 0.40 0.40 94 1016.3
20260902005846 78 134 0.0 1.0 0.00 0.40 0.40 94 1016.3
20260902005340 78 193 0.0 1.0 0.00 0.40 0.40 95 1016.5
20260902004836 79 156 0.0 1.0 0.00 0.40 0.40 95 1016.4
20260902004331 79 210 1.0 1.0 0.00 0.40 0.40 95 1016.3
20260902003826 79 216 1.0 2.0 0.00 0.40 0.40 95 1016.4
20260902003321 79 211 0.0 1.0 0.00 0.40 0.40 96 1016.4
20260902002817 79 300 1.0 2.0 0.00 0.40 0.40 96 1016.6
20260902002316 79 16 1.0 2.0 0.00 0.40 0.40 96 1016.7
20260902001812 79 200 1.0 1.0 0.00 0.40 0.40 96 1016.7
20260902001306 79 217 0.0 0.0 0.00 0.40 0.40 97 1016.9
20260902000801 79 204 0.0 0.0 0.00 0.40 0.40 98 1017.0
20260902000301 78 170 1.0 1.0 0.00 0.40 0.40 98 1016.9
20260901235756 78 150 0.0 0.0 0.00 0.40 0.40 98 1016.9
20260901235251 78 191 1.0 1.0 0.00 0.40 0.40 98 1017.1
20260901234750 78 170 0.0 0.0 0.00 0.40 0.40 99 1016.7
20260901234239 78 209 0.0 1.0 0.00 0.40 0.40 99 1017.0
20260901233734 78 77 1.0 2.0 0.00 0.40 0.40 99 1017.1
20260901233230 78 17 2.0 2.0 0.00 0.40 0.40 99 1016.9
20260901232725 78 238 0.0 0.0 0.00 0.40 0.40 99 1017.1
20260901232220 78 204 1.0 1.0 0.00 0.40 0.40 99 1017.2
20260901231716 78 150 0.0 1.0 0.00 0.40 0.40 99 1017.1
20260901231212 78 191 0.0 0.0 0.00 0.40 0.40 99 1017.1
20260901230707 78 165 0.0 0.0 0.00 0.40 0.40 99 1017.2
20260901230202 78 197 0.0 0.0 0.00 0.40 0.40 99 1017.1
20260901225657 78 181 0.0 0.0 0.00 0.40 0.40 99 1017.2
20260901225156 78 226 1.0 2.0 0.00 0.40 0.40 99 1017.2
20260901224653 78 194 0.0 1.0 0.00 0.40 0.40 99 1017.5
20260901224149 78 150 2.0 3.0 0.00 0.40 0.40 99 1017.5
20260901223644 79 258 1.0 1.0 0.00 0.40 0.40 99 1017.5
20260901223139 79 202 0.0 0.0 0.00 0.40 0.40 99 1017.5
20260901222636 78 223 1.0 1.0 0.00 0.40 0.40 99 1017.4
20260901222131 78 207 1.0 1.0 0.00 0.40 0.40 99 1017.4
20260901221627 78 205 0.0 0.0 0.00 0.40 0.40 99 1017.4
20260901221123 78 158 1.0 1.0 0.00 0.40 0.40 99 1017.5
20260901220622 78 171 0.0 1.0 0.00 0.40 0.40 99 1017.4
20260901220121 78 150 1.0 1.0 0.00 0.40 0.40 99 1017.7
20260901215620 78 338 3.0 3.0 0.00 0.40 0.40 99 1017.9
20260901215120 78 194 0.0 0.0 0.00 0.40 0.40 99 1017.9
20260901214618 78 167 1.0 1.0 0.00 0.40 0.40 99 1018.0
20260901214113 78 150 0.0 1.0 0.00 0.40 0.40 99 1017.8
20260901213612 78 72 3.0 3.0 0.00 0.40 0.40 99 1018.0
20260901213107 78 200 0.0 0.0 0.00 0.40 0.40 99 1018.1
20260901212607 78 200 0.0 0.0 0.00 0.40 0.40 99 1018.1
20260901212103 78 197 0.0 0.0 0.00 0.40 0.40 99 1017.8
20260901211558 78 211 1.0 1.0 0.07 0.40 0.40 99 1018.1
20260901211055 78 197 0.0 0.0 0.12 0.40 0.40 99 1018.1
20260901210549 78 200 0.0 0.0 0.17 0.39 0.39 99 1018.2
20260901210046 78 194 1.0 1.0 0.19 0.38 0.38 99 1018.3
20260901205541 79 185 1.0 1.0 0.12 0.36 0.36 99 1018.5
20260901205036 79 130 3.0 3.0 0.12 0.35 0.35 99 1018.7
20260901204532 79 180 1.0 1.0 0.14 0.34 0.34 99 1018.6
20260901204027 79 191 0.0 0.0 0.07 0.33 0.33 98 1018.7
20260901203526 79 194 0.0 0.0 0.12 0.33 0.33 98 1018.6
20260901203022 78 173 1.0 1.0 1.18 0.32 0.32 98 1018.4
20260901202516 79 147 2.0 2.0 1.79 0.31 0.31 97 1018.4
20260901202012 80 76 4.0 5.0 1.02 0.17 0.17 95 1018.8
20260901201508 82 72 2.0 2.0 0.07 0.01 0.01 90 1018.7
20260901201002 86 79 5.0 6.0 0.00 0.00 0.00 82 1018.3
20260901200456 87 184 0.0 0.0 0.00 0.00 0.00 78 1018.0
20260901195955 87 195 0.0 0.0 0.00 0.00 0.00 77 1018.0
20260901195454 88 180 0.0 1.0 0.00 0.00 0.00 73 1018.1
20260901194948 89 174 1.0 1.0 0.00 0.00 0.00 66 1018.0
20260901194444 91 199 2.0 2.0 0.00 0.00 0.00 62 1018.2
20260901193940 91 200 0.0 0.0 0.00 0.00 0.00 62 1018.3
20260901193439 91 207 1.0 1.0 0.00 0.00 0.00 63 1018.2
20260901192939 90 209 1.0 1.0 0.00 0.00 0.00 63 1018.1
20260901192435 90 192 0.0 1.0 0.00 0.00 0.00 64 1018.5
20260901191931 90 188 2.0 2.0 0.00 0.00 0.00 65 1018.4
20260901191426 91 133 1.0 1.0 0.00 0.00 0.00 64 1018.4
20260901190922 91 187 0.0 0.0 0.00 0.00 0.00 65 1018.3
20260901190422 91 105 3.0 3.0 0.00 0.00 0.00 66 1018.3
20260901185920 90 236 2.0 3.0 0.00 0.00 0.00 64 1018.3
20260901185419 90 186 2.0 2.0 0.00 0.00 0.00 65 1018.5
20260901184914 90 98 4.0 5.0 0.00 0.00 0.00 64 1018.5
20260901184410 90 127 2.0 2.0 0.00 0.00 0.00 64 1018.4
20260901183905 90 151 0.0 0.0 0.00 0.00 0.00 64 1018.5
20260901183404 90 30 2.0 3.0 0.00 0.00 0.00 64 1018.4
20260901182900 90 159 1.0 2.0 0.00 0.00 0.00 65 1018.5
20260901182355 90 165 2.0 2.0 0.00 0.00 0.00 65 1018.5
20260901181850 90 164 1.0 1.0 0.00 0.00 0.00 66 1018.8
20260901181345 90 71 1.0 2.0 0.00 0.00 0.00 66 1018.7
20260901180844 89 134 1.0 1.0 0.00 0.00 0.00 66 1018.9
20260901180343 89 321 2.0 2.0 0.00 0.00 0.00 67 1019.0
20260901175842 90 256 4.0 6.0 0.00 0.00 0.00 66 1019.0
20260901175337 90 106 1.0 1.0 0.00 0.00 0.00 66 1019.4
20260901174832 90 315 3.0 3.0 0.00 0.00 0.00 66 1019.4